| time (UTC) | temp F | wind direction | speed MPH | gust MPH | rain 1hr in | rain 24hr in | rain mn in | humidity % | barometer mb |
| 20260507150233 | 66 | 220 | 12.0 | 0.0 | 0.00 | 0.00 | 0.00 | 52 | 1011.0 |
| 20260507143231 | 66 | 240 | 13.0 | 0.0 | 0.00 | 0.00 | 0.00 | 52 | 1011.0 |
| 20260507142158 | 68 | 240 | 14.0 | 0.0 | 0.00 | 0.00 | 0.00 | 45 | |
| 20260507140233 | 68 | 250 | 13.0 | 0.0 | 0.00 | 0.00 | 0.00 | 49 | 1011.0 |
| 20260507133231 | 66 | 230 | 13.0 | 0.0 | 0.00 | 0.00 | 0.00 | 48 | 1011.0 |
| 20260507132258 | 68 | 220 | 12.0 | 0.0 | 0.00 | 0.00 | 0.00 | 49 | |
| 20260507130231 | 68 | 220 | 13.0 | 0.0 | 0.00 | 0.00 | 0.00 | 52 | 1011.0 |
| 20260507123231 | 68 | 210 | 14.0 | 0.0 | 0.00 | 0.00 | 0.00 | 52 | 1011.0 |
| 20260507122157 | 66 | 230 | 16.0 | 0.0 | 0.00 | 0.00 | 0.00 | 55 | |
| 20260507120234 | 66 | 230 | 16.0 | 0.0 | 0.00 | 0.00 | 0.00 | 55 | 1011.0 |
| 20260507113230 | 66 | 220 | 14.0 | 0.0 | 0.00 | 0.00 | 0.00 | 55 | 1011.0 |
| 20260507112213 | 68 | 230 | 16.0 | 0.0 | 0.00 | 0.00 | 0.00 | 52 | |
| 20260507110235 | 68 | 230 | 16.0 | 0.0 | 0.00 | 0.00 | 0.00 | 52 | 1011.0 |
| 20260507103231 | 68 | 220 | 16.0 | 0.0 | 0.00 | 0.00 | 0.00 | 52 | 1011.0 |
| 20260507102356 | 68 | 240 | 16.0 | 0.0 | 0.00 | 0.00 | 0.00 | 52 | |
| 20260507100225 | 68 | 240 | 16.0 | 0.0 | 0.00 | 0.00 | 0.00 | 56 | 1011.0 |
| 20260507093230 | 68 | 220 | 16.0 | 0.0 | 0.00 | 0.00 | 0.00 | 56 | 1011.0 |
| 20260507092157 | 66 | 230 | 16.0 | 0.0 | 0.00 | 0.00 | 0.00 | 59 | |
| 20260507090233 | 66 | 220 | 15.0 | 0.0 | 0.00 | 0.00 | 0.00 | 59 | 1011.0 |
| 20260507083231 | 64 | 230 | 14.0 | 0.0 | 0.00 | 0.00 | 0.00 | 63 | 1010.0 |
| 20260507082156 | 64 | 220 | 18.0 | 0.0 | 0.00 | 0.00 | 0.00 | 63 | |
| 20260507080233 | 64 | 220 | 17.0 | 0.0 | 0.00 | 0.00 | 0.00 | 67 | 1010.0 |
| 20260507073223 | 64 | 230 | 16.0 | 0.0 | 0.00 | 0.00 | 0.00 | 67 | 1010.0 |
| 20260507072156 | 63 | 230 | 16.0 | 0.0 | 0.00 | 0.00 | 0.00 | 67 | |
| 20260507070235 | 63 | 230 | 15.0 | 0.0 | 0.00 | 0.00 | 0.00 | 67 | 1010.0 |
| 20260507063231 | 61 | 240 | 10.0 | 0.0 | 0.00 | 0.00 | 0.00 | 72 | 1010.0 |
| 20260507062156 | 61 | 230 | 16.0 | 0.0 | 0.00 | 0.00 | 0.00 | 72 | |
| 20260507060235 | 59 | 230 | 15.0 | 0.0 | 0.00 | 0.00 | 0.00 | 77 | 1010.0 |
| 20260507053224 | 59 | 250 | 15.0 | 0.0 | 0.00 | 0.00 | 0.00 | 77 | 1009.0 |
| 20260507052156 | 61 | 230 | 16.0 | 0.0 | 0.00 | 0.00 | 0.00 | 72 | |
| 20260507050234 | 59 | 230 | 14.0 | 0.0 | 0.00 | 0.00 | 0.00 | 72 | 1009.0 |
| 20260507043224 | 59 | 240 | 13.0 | 0.0 | 0.00 | 0.00 | 0.00 | 72 | 1008.0 |
| 20260507042358 | 59 | 250 | 9.0 | 0.0 | 0.00 | 0.00 | 0.00 | 72 | |
| 20260507040232 | 59 | 250 | 8.0 | 0.0 | 0.00 | 0.00 | 0.00 | 72 | 1008.0 |
| 20260507033224 | 61 | 210 | 15.0 | 0.0 | 0.00 | 0.00 | 0.00 | 67 | 1007.0 |
| 20260507032155 | 61 | 210 | 16.0 | 0.0 | 0.00 | 0.00 | 0.00 | 67 | |
| 20260507030239 | 61 | 220 | 13.0 | 0.0 | 0.00 | 0.00 | 0.00 | 67 | 1007.0 |
| 20260507023223 | 63 | 220 | 13.0 | 0.0 | 0.00 | 0.00 | 0.00 | 63 | 1006.0 |
| 20260507022154 | 63 | 220 | 14.0 | 0.0 | 0.00 | 0.00 | 0.00 | 63 | |
| 20260507020239 | 61 | 220 | 13.0 | 0.0 | 0.00 | 0.00 | 0.00 | 67 | 1007.0 |
| 20260507013224 | 63 | 190 | 15.0 | 0.0 | 0.00 | 0.00 | 0.00 | 63 | 1006.0 |
| 20260507012255 | 63 | 190 | 16.0 | 0.0 | 0.00 | 0.00 | 0.00 | 63 | |
| 20260507010240 | 63 | 190 | 15.0 | 0.0 | 0.00 | 0.00 | 0.00 | 63 | 1006.0 |
| 20260507003223 | 63 | 190 | 12.0 | 0.0 | 0.00 | 0.00 | 0.00 | 63 | 1006.0 |
| 20260507002156 | 63 | 230 | 9.0 | 0.0 | 0.00 | 0.00 | 0.00 | 63 | |
| 20260507000234 | 61 | 230 | 9.0 | 0.0 | 0.00 | 0.00 | 0.00 | 67 | 1006.0 |
| 20260506233224 | 64 | 190 | 10.0 | 0.0 | 0.00 | 0.00 | 0.00 | 59 | 1006.0 |
| 20260506232156 | 64 | 190 | 12.0 | 0.0 | 0.00 | 0.00 | 0.00 | 55 | |
| 20260506230239 | 64 | 190 | 12.0 | 0.0 | 0.00 | 0.00 | 0.00 | 59 | 1006.0 |
| 20260506223223 | 64 | 190 | 10.0 | 0.0 | 0.00 | 0.00 | 0.00 | 59 | 1006.0 |
| 20260506222427 | 66 | 190 | 16.0 | 0.0 | 0.00 | 0.00 | 0.00 | 55 | |
| 20260506220245 | 66 | 190 | 15.0 | 0.0 | 0.00 | 0.00 | 0.00 | 55 | 1006.0 |
| 20260506213231 | 66 | 190 | 15.0 | 0.0 | 0.00 | 0.00 | 0.00 | 55 | 1006.0 |
| 20260506212211 | 68 | 190 | 14.0 | 0.0 | 0.00 | 0.00 | 0.00 | 49 | |
| 20260506210233 | 66 | 190 | 13.0 | 0.0 | 0.00 | 0.00 | 0.00 | 52 | 1006.0 |
| 20260506203222 | 68 | 190 | 14.0 | 0.0 | 0.00 | 0.00 | 0.00 | 49 | 1006.0 |
| 20260506202228 | 68 | 190 | 14.0 | 0.0 | 0.00 | 0.00 | 0.00 | 45 | |
| 20260506200239 | 68 | 190 | 13.0 | 0.0 | 0.00 | 0.00 | 0.00 | 49 | 1006.0 |
| 20260506193232 | 70 | 190 | 15.0 | 0.0 | 0.00 | 0.00 | 0.00 | 46 | 1006.0 |
| 20260506192404 | 70 | 190 | 12.0 | 0.0 | 0.00 | 0.00 | 0.00 | 46 | |
| 20260506190253 | 70 | 190 | 10.0 | 0.0 | 0.00 | 0.00 | 0.00 | 46 | 1005.0 |
| 20260506183245 | 70 | 190 | 10.0 | 0.0 | 0.00 | 0.00 | 0.00 | 46 | 1005.0 |
| 20260506182301 | 72 | 180 | 9.0 | 0.0 | 0.00 | 0.00 | 0.00 | 40 | |
| 20260506180247 | 72 | 180 | 9.0 | 0.0 | 0.00 | 0.00 | 0.00 | 43 | 1005.0 |
| 20260506173238 | 72 | 180 | 10.0 | 0.0 | 0.00 | 0.00 | 0.00 | 43 | 1005.0 |
| 20260506172226 | 72 | 190 | 14.0 | 0.0 | 0.00 | 0.00 | 0.00 | 40 | |
| 20260506170233 | 72 | 190 | 13.0 | 0.0 | 0.00 | 0.00 | 0.00 | 43 | 1005.0 |
| 20260506163238 | 73 | 190 | 12.0 | 0.0 | 0.00 | 0.00 | 0.00 | 43 | 1006.0 |
| 20260506162428 | 73 | 190 | 14.0 | 0.0 | 0.00 | 0.00 | 0.00 | 40 | |
| 20260506160247 | 73 | 190 | 13.0 | 25.0 | 0.00 | 0.00 | 0.00 | 40 | 1006.0 |
| 20260506153238 | 73 | 190 | 15.0 | 0.0 | 0.00 | 0.00 | 0.00 | 40 | 1006.0 |
| 20260506152244 | 73 | 200 | 14.0 | 0.0 | 0.00 | 0.00 | 0.00 | 40 |